Location: Ithaca
(42.4410°N, 76.4970°W)
Time: 12:54:04
(UTC-05:00)

ISS - Visible Passes

Search period start: 06 December 2016 00:00
Search period end: 16 December 2016 00:00
Orbit: 401 x 410 km, 51.6° (Epoch: 06 December)

Date Brightness Start Highest point End Pass type
(mag) Time Alt. Az. Time Alt. Az. Time Alt. Az.
06 Dec -1.3 18:22:28 10° WNW 18:25:00 20° NNW 18:25:01 20° NNW visible
07 Dec -1.7 17:30:01 10° WNW 17:32:49 25° NNW 17:35:06 13° NNE visible
08 Dec -1.2 18:15:38 10° NW 18:17:51 17° N 18:17:51 17° N visible
09 Dec -1.3 17:23:13 10° WNW 17:25:39 19° N 17:27:55 11° NE visible
10 Dec -1.2 18:08:31 10° NW 18:10:40 17° N 18:10:40 17° N visible
11 Dec -1.3 17:16:16 10° NW 17:18:29 16° N 17:20:42 10° NE visible
11 Dec -0.4 18:53:01 10° NW 18:53:26 12° NW 18:53:26 12° NW visible
12 Dec -1.6 18:01:03 10° NW 18:03:33 20° NNE 18:03:33 20° NNE visible
13 Dec -1.4 17:09:00 10° NW 17:11:16 17° N 17:13:33 10° NE visible
13 Dec -1.0 18:45:18 10° NW 18:46:26 19° NW 18:46:26 19° NW visible
14 Dec -2.2 17:53:21 10° NW 17:56:14 27° NNE 17:56:42 26° NE visible
15 Dec -2.2 18:37:34 10° NW 18:39:47 39° NW 18:39:47 39° NW visible
